Regional Weather Roundup
Issued by NWS

Home | Current Version | Previous Version | Graphics & Text | Print | Product List | Glossary Off
Versions: 1 2 3 4 5 6 7 8 9 10 11 12 13 14 15 16 17 18 19 20 21 22 23 24 25 26 27 28 29 30 31 32 33 34 35 36 37 38 39 40 41 42 43 44 45 46 47 48 49 50

000
ASUS43 KMKX 282200
RWRWI

WISCONSIN REGIONAL WEATHER ROUNDUP
NATIONAL WEATHER SERVICE MILWAUKEE/SULLIVAN WI
500 PM CDT TUE MAR 28 2017

NOTE: "FAIR" INDICATES FEW OR NO CLOUDS BELOW 12,000 FEET WITH NO
SIGNIFICANT WEATHER AND/OR OBSTRUCTIONS TO VISIBILITY.

WIZ001-002-006>008-014>016-023>028-282300-
NORTHWEST WISCONSIN

CITY           SKY/WX    TMP DP  RH WIND       PRES   REMARKS
SUPERIOR ARPT  SUNNY     61  32  33 E7        30.15S
ASHLAND        MOSUNNY   56  30  37 N8        30.16R
HAYWARD        MOSUNNY   62  14  15 VRB5      30.14S
SIREN          MOSUNNY   63  13  14 CALM      30.13F
CUMBERLAND     SUNNY     59  23  25 CALM      30.14S
RICE LAKE      SUNNY     60  23  24 CALM      30.16S
CHETEK         SUNNY     60  26  28 CALM      30.14S
LADYSMITH      SUNNY     61  27  27 W5        30.15F
EAU CLAIRE     NOT AVBL
MENOMONIE      SUNNY     61  32  33 NE3       30.13F
NEW RICHMOND   SUNNY     62  29  29 CALM      30.14S
OSCEOLA        SUNNY     62  27  26 CALM      30.16S
$$

WIZ003>005-009-010-017-018-282300-
NORTH CENTRAL WISCONSIN

CITY           SKY/WX    TMP DP  RH WIND       PRES   REMARKS
MANITOWISH WTR SUNNY     58  25  28 CALM      30.14S
ARBOR VITAE    SUNNY     58  26  29 NW5       30.13S
WOODRUFF       SUNNY     58  26  29 NW5       30.13S
RHINELANDER    SUNNY     59  26  28 E5        30.15R
EAGLE RIVER    SUNNY     58  23  26 S3        30.13S
LAND O LAKES   SUNNY     58  24  27 CALM      30.15S
PHILLIPS       SUNNY     59  22  24 SW5       30.13S
TOMAHAWK       SUNNY     59  21  23 NE5       30.14S
MEDFORD        SUNNY     55  33  42 S5        30.14S
MERRILL        SUNNY     59  28  30 E3        30.15R
$$

WIZ029-030-035-036-043>047-282300-
CENTRAL WISCONSIN

CITY           SKY/WX    TMP DP  RH WIND       PRES   REMARKS
WAUSAU         SUNNY     58  26  29 NW6       30.13S
MOSINEE        SUNNY     57  27  30 VRB6      30.15S
MARSHFIELD     SUNNY     56  35  45 CALM      30.14S
STEVENS POINT  SUNNY     56  27  32 SE5       30.14F
WAUPACA        SUNNY     60  29  31 E8        30.16R
WAUTOMA        SUNNY     58  32  37 E9        30.15S
WISC RAPIDS    SUNNY     60  31  33 E9        30.15S
CAMP DOUGLAS   NOT AVBL
$$

WIZ011>013-019>022-031-037>040-048>050-282300-
NORTHEAST WISCONSIN

CITY           SKY/WX    TMP DP  RH WIND       PRES   REMARKS
ANTIGO         SUNNY     56  31  38 NW5       30.15S
SHAWANO        SUNNY     58  33  38 E7        30.17R
OCONTO         SUNNY     45  33  61 E6        30.18F
STURGEON BAY   SUNNY     45  37  73 VRB5      30.23S
GREEN BAY      SUNNY     50  38  63 NE7       30.18R
MANITOWOC      NOT AVBL
APPLETON       MOSUNNY   54  21  28 NE7       30.14S
CLINTONVILLE   SUNNY     55  32  41 NE3       30.15S
OSHKOSH        SUNNY     52  36  54 NE9       30.15F
$$

WIZ032>034-041-042-053>061-282300-
SOUTHWEST WISCONSIN

CITY           SKY/WX    TMP DP  RH WIND       PRES   REMARKS
LA CROSSE      SUNNY     61  39  44 W5        30.12F
SPARTA         SUNNY     60  32  35 NE5       30.13F
VIROQUA        SUNNY     59  36  42 CALM      30.13S
BOSCOBEL       SUNNY     59  36  42 VRB3      30.13F
PRAIRIE DU CHI SUNNY     55  36  49 E9        30.13F
PLATTEVILLE    SUNNY     52  43  72 E3        30.14F
$$

WIZ056-057-062-063-064-067-068-282300-
SOUTH CENTRAL WISCONSIN

CITY           SKY/WX    TMP DP  RH WIND       PRES   REMARKS
REEDSBURG      SUNNY     58  35  42 E6        30.13S
BARABOO/DELLS  SUNNY     57  34  40 NE6       30.13S
LONE ROCK      NOT AVBL
MINERAL POINT  MOSUNNY   55  37  50 CALM      30.12F
MADISON        MOSUNNY   56  38  50 NE10G20   30.13S
MIDDLETON      SUNNY     58  38  48 E6        30.13S
WATERTOWN      SUNNY     56  40  54 N9        30.12F
MONROE         MOSUNNY   55  37  50 NE7       30.12F
JANESVILLE     PTSUNNY   57  37  47 NE12      30.12S
$$

WIZ051-052-058>065-066-070>072-282300-
SOUTHEAST WISCONSIN

CITY           SKY/WX    TMP DP  RH WIND       PRES   REMARKS
MILWAUKEE      CLOUDY    37  34  89 NE9       30.18S WCI  30
WAUKESHA       SUNNY     46  37  71 NE12G17   30.16R
MILWAUKEE/TIMM CLOUDY    37  34  87 NE10      30.18S WCI  30
RACINE         CLOUDY    37  33  85 N14       30.19R WCI  28
KENOSHA        SUNNY     45  36  70 NE13      30.16S
FOND DU LAC    SUNNY     54  39  57 N8        30.15F
SHEBOYGAN      CLOUDY    38  36  92 E8        30.18S FOG     WCI  32
WEST BEND      SUNNY     48  41  76 E9        30.15S
JUNEAU         SUNNY     53  40  61 N7        30.15S
$$

LSZ147-162-282300-
LAKE SUPERIOR

STATION/POSITION TIME  TEMP    WIND        PRES    WAVE
                       AIR SEA DIR/SP/G            HT/PER
                 (UTC) (F)     (DEG/KT/KT) (MB)    (FT/S)
DEVILS ISLAND    2100           50/ 12/ 12 1022.6R
PORT WING        2130   53      50/  2/  3 1021.3S
SAXON HARBOR     2130   47      40/  2/  5 1021.3F
$$

LMZ867-665-643>646-282300-
LAKE MICHIGAN

STATION/POSITION TIME  TEMP    WIND        PRES    WAVE
                       AIR SEA DIR/SP/G            HT/PER
                 (UTC) (F)     (DEG/KT/KT) (MB)    (FT/S)
CHAMBERS ISLAND  2140   38      CALM  /  3 1022.0S
NORTHPORT PIER   2140   33     150/  4/  6 1022.4S
SISTER BAY       2021   36     360/ 14/ 15   N/A
KEWAUNEE LAKESHO 2130   36      40/  5/  8 1021.9R
SHEBOYGAN LAKESH 2100   34      20/ 13/ 14 1022.7R
PORT WASHINGTON  2140   36      50/ 12/ 15 1023.0S
MILWAUKEE LAKESH 2130   35      30/ 12/ 13   N/A
KENOSHA   LAKESH 2100   36      40/ 12/ 15 1021.7
$$

TC  - TEMPERATURE IN CELSIUS
VSB - VISIBILITY IN STATUTE MILES
WCI - WIND CHILL INDEX
HX  - HEAT INDEX




USA.gov is the U.S. government's official web portal to all federal, state and local government web resources and services.